Location: ??
(35.5052°N, 139.7262°E)
Time: 01:04:34
(UTC+00:00)

CZ-4B R/B - Visible Passes

Search period start: 24 October 2021 00:00
Search period end: 03 November 2021 00:00
Orbit: 703 x 802 km, 98.9° (Epoch: 23 October)

Date Brightness Start Highest point End Pass type
(mag) Time Alt. Az. Time Alt. Az. Time Alt. Az.
24 Oct 4.9 18:32:35 10° N 18:35:06 29° N 18:35:06 29° N visible
25 Oct 5.8 17:52:23 10° NNE 17:53:59 19° NE 17:53:59 19° NE visible
25 Oct 5.1 19:31:53 10° NNW 19:33:54 17° NW 19:33:54 17° NW visible
26 Oct 4.9 18:50:31 10° N 18:52:49 25° N 18:52:49 25° N visible
27 Oct 5.5 18:10:01 10° NNE 18:11:42 21° NNE 18:11:42 21° NNE visible
27 Oct 5.4 19:50:39 10° NNW 19:51:37 12° NW 19:51:37 12° NW visible
28 Oct 6.4 17:30:21 10° NE 17:30:36 11° NE 17:30:36 11° NE visible
28 Oct 5.1 19:08:36 10° N 19:10:31 20° NNW 19:10:31 20° NNW visible
29 Oct 5.4 18:27:46 10° NNE 18:29:24 21° N 18:29:24 21° N visible
30 Oct 6.2 17:47:42 10° NNE 17:48:17 13° NE 17:48:17 13° NE visible
30 Oct 5.3 19:26:53 10° NNW 19:28:13 16° NNW 19:28:13 16° NNW visible
31 Oct 5.4 18:45:40 10° N 18:47:06 19° N 18:47:06 19° N visible
01 Nov 6.0 18:05:15 10° NNE 18:05:59 14° NNE 18:05:59 14° NNE visible
01 Nov 5.5 19:45:29 10° NNW 19:45:54 11° NNW 19:45:54 11° NNW visible
02 Nov 5.5 19:03:42 10° N 19:04:47 16° N 19:04:47 16° N visible
